Flag for U.S.A. Weather past 2 weeks in Redmond, Washington, U.S.A.

Now
52 °F

Passing clouds.


Feels Like: 52 °F
Forecast: 37 / 51 °F
Wind: No wind

Location: Seattle Boeing Field

Current Time: Mar 1, 2015 at 7:41:26 PM

Latest Report: Mar 1, 2015 at 6:53 PM


Visibility: 10 mi

Pressure: 29.99 "Hg

Humidity: 50%

Dew point: 34 °F

Location of RedmondLocation

Historic Weather in Redmond — Graph

°F

Redmond temperature yesterday

Maximum temperature yesterday: 56 °F (at 1:53 PM)
Minimum temperature yesterday: 37 °F (at 11:53 PM)
Average temperature yesterday: 48 °F

Past Weeks' High & Low Weather Summary

 TemperatureHumidityPressure
High61 °F (Feb 16, 1:53 PM)93% (Feb 22, 7:53 AM)30.48 "Hg (Feb 22, 7:53 AM)
Low33 °F (Feb 23, 4:53 AM)24% (Feb 28, 4:53 PM)29.72 "Hg (Feb 27, 5:53 AM)
Average49 °F67%30.25 "Hg
* Reported Feb 14 5:53 PM — Mar 1 5:53 PM, Redmond, Weather by CustomWeather, © 2015

Note: Actual official high and low records may vary slightly from our data, if they occured in-between our weather recording intervals... More about our weather records

Advertising

Redmond weather history for previous 24 hours

 ConditionsComfort  
Time TempWeatherWind HumidityBarometerVisibility
5:53 PM
Sun, Mar 1
53 °FPartly sunny.No wind39%30.00 "Hg10 mi
4:58 PM54 °FOvercast.No wind38%30.02 "Hg10 mi
3:53 PM54 °FOvercast.No wind37%30.04 "Hg10 mi
2:53 PM54 °FMostly cloudy.6 mph34%30.07 "Hg10 mi
1:53 PM54 °FOvercast.6 mph38%30.09 "Hg10 mi
12:53 PM54 °FPartly sunny.5 mph40%30.13 "Hg10 mi
11:53 AM54 °FPartly sunny.3 mph41%30.17 "Hg10 mi
10:53 AM51 °FScattered clouds.No wind46%30.19 "Hg10 mi
9:53 AM48 °FScattered clouds.5 mph50%30.21 "Hg10 mi
8:53 AM42 °FSunny.3 mph68%30.23 "Hg10 mi
7:53 AM36 °FSunny.5 mph79%30.24 "Hg10 mi
6:53 AM35 °FSunny.7 mph78%30.24 "Hg10 mi
5:53 AM37 °FClear.3 mph76%30.25 "Hg10 mi
4:53 AM36 °FClear.3 mph75%30.24 "Hg10 mi
3:53 AM35 °FClear.6 mph75%30.24 "Hg10 mi
2:53 AM35 °FClear.3 mph75%30.25 "Hg10 mi
1:53 AM40 °FClear.No wind68%30.26 "Hg10 mi
12:53 AM40 °FClear.3 mph68%30.25 "Hg10 mi
11:53 PM
Sat, Feb 28
37 °FClear.6 mph73%30.24 "Hg10 mi
10:53 PM42 °FClear.No wind57%30.24 "Hg10 mi
9:53 PM43 °FClear.No wind53%30.23 "Hg10 mi
8:53 PM46 °FClear.No wind46%30.22 "Hg10 mi
7:53 PM49 °FClear.No wind38%30.21 "Hg10 mi
Weather by CustomWeather, © 2015

See weather overviewHow to use our weather pages